Home   Weather   Washington County   Past weeks
Flag for USA

Past Weather in Washington County, Illinois, USA — Yesterday and Last 2 Weeks

Now
89 °F

Scattered clouds.


Feels Like: 91 °F
Forecast: 89 / 69 °F
Wind: 13 mph from Southwest

Location: Lambert-St. Louis International Airport

Current Time: May 24, 2019 at 4:12:55 pm

Latest Report: May 24, 2019 at 2:51 pm


Visibility: 10 mi

Pressure: 29.97 "Hg

Humidity: 45%

Dew Point: 65 °F

Location of Washington CountyLocation

Past Weather in Washington County — Graph

°F

Washington County Temperature Yesterday

Maximum temperature yesterday: 80 °F (at 3:51 pm)
Minimum temperature yesterday: 70 °F (at 5:51 am)
Average temperature yesterday: 75 °F

High & Low Weather Summary for the Past Weeks

 TemperatureHumidityPressure
High91 °F (May 16, 2:51 pm)94% (May 21, 2:43 am)30.19 "Hg (May 21, 2:43 am)
Low44 °F (May 13, 5:51 am)30% (May 18, 3:51 pm)29.62 "Hg (May 19, 2:51 am)
Average64 °F69%29.91 "Hg
* Reported May 9 2:02 pm — May 24 2:51 pm, Washington County. Weather by CustomWeather, © 2019

Note: Actual official high and low records may vary slightly from our data, if they occured in-between our weather recording intervals... More about our weather records

Advertising

Washington County Weather History for the Previous 24 Hours

Scroll right to see more
 ConditionsComfort  
Time TempWeatherWind HumidityBarometerVisibility
2:51 pm
Fri, May 24
89 °FScattered clouds.13 mph45%29.97 "Hg10 mi
1:51 pm91 °FScattered clouds.17 mph47%29.98 "Hg10 mi
12:51 pm89 °FPassing clouds.20 mph50%30.01 "Hg10 mi
11:51 am88 °FScattered clouds.21 mph52%30.01 "Hg10 mi
10:51 am86 °FScattered clouds.17 mph53%30.01 "Hg10 mi
9:51 am83 °FPartly sunny.18 mph61%30.02 "Hg10 mi
8:51 am81 °FPartly sunny.13 mph65%30.03 "Hg10 mi
7:51 am76 °FPartly sunny.14 mph77%30.03 "Hg10 mi
6:51 am73 °FPartly sunny.7 mph81%30.02 "Hg9 mi
5:51 am73 °FPartly sunny.6 mph84%30.01 "Hg9 mi
4:51 am73 °FPassing clouds.5 mph84%30.01 "Hg10 mi
3:51 am74 °FPassing clouds.8 mph82%30.01 "Hg10 mi
2:51 am74 °FPassing clouds.6 mph76%30.01 "Hg10 mi
1:51 am73 °FPassing clouds.3 mph79%30.01 "Hg10 mi
12:51 am74 °FPassing clouds.6 mph76%30.02 "Hg10 mi
11:51 pm
Thu, May 23
75 °FPassing clouds.3 mph71%30.03 "Hg10 mi
10:51 pm75 °FPassing clouds.7 mph71%30.04 "Hg10 mi
9:51 pm75 °FPartly cloudy.5 mph74%30.04 "Hg10 mi
8:51 pm76 °FPartly cloudy.5 mph69%30.03 "Hg10 mi
7:51 pm77 °FBroken clouds.7 mph69%30.03 "Hg10 mi
6:51 pm80 °FPartly sunny.3 mph58%30.03 "Hg10 mi
5:51 pm80 °FScattered clouds.No wind58%30.04 "Hg10 mi
4:51 pm80 °FBroken clouds.6 mph60%30.05 "Hg10 mi
Weather by CustomWeather, © 2019

See weather overview